Current conditions around Wisconsin

 

						ASUS43 KMKX 111300
RWRWI

WISCONSIN REGIONAL WEATHER ROUNDUP
NATIONAL WEATHER SERVICE MILWAUKEE/SULLIVAN WI
800 AM CDT TUE AUG 11 2020

NOTE: "FAIR" INDICATES FEW OR NO CLOUDS BELOW 12,000 FEET WITH NO
SIGNIFICANT WEATHER AND/OR OBSTRUCTIONS TO VISIBILITY.

WIZ001-002-006>008-014>016-023>028-111400-
NORTHWEST WISCONSIN

CITY           SKY/WX    TMP DP  RH WIND       PRES   REMARKS
SUPERIOR ARPT  SUNNY     60  52  76 SW8       29.91R
ASHLAND        SUNNY     63  52  67 SW10      29.91S
HAYWARD        SUNNY     59  53  80 S6        29.97R
SIREN          SUNNY     63  55  74 SW6       29.96S
CUMBERLAND     SUNNY     59  54  82 SW3       29.98S
RICE LAKE      SUNNY     58  55  88 CALM      29.99S
CHETEK         SUNNY     59  55  88 CALM      29.99R
LADYSMITH      SUNNY     57  57 100 CALM      30.00R
EAU CLAIRE     NOT AVBL
MENOMONIE      SUNNY     55  53  93 CALM      29.99R
NEW RICHMOND   SUNNY     61  54  78 CALM      29.99R
OSCEOLA        SUNNY     61  58  90 CALM      30.01R
$$

WIZ003>005-009-010-017-018-111400-
NORTH CENTRAL WISCONSIN

CITY           SKY/WX    TMP DP  RH WIND       PRES   REMARKS
MANITOWISH WTR SUNNY     57  56  97 W3        29.96R
ARBOR VITAE    NOT AVBL
WOODRUFF       NOT AVBL
RHINELANDER    SUNNY     60  52  74 W8        29.99R
EAGLE RIVER    SUNNY     59  55  89 NW5       29.97R
LAND O LAKES   SUNNY     59  53  82 W6        29.97R
PHILLIPS       SUNNY     58  53  83 CALM      29.98R
TOMAHAWK       SUNNY     55  55  98 CALM      29.99R
MEDFORD        SUNNY     57  53  85 W5        30.00R
MERRILL        SUNNY     58  54  86 W5        29.99R
$$

WIZ029-030-035-036-043>047-111400-
CENTRAL WISCONSIN

CITY           SKY/WX    TMP DP  RH WIND       PRES   REMARKS
WAUSAU         SUNNY     60  54  80 NW6       29.97R
MOSINEE        SUNNY     59  54  82 CALM      30.00R
MARSHFIELD       N/A     59  54  83 W6        29.99R
STEVENS POINT  SUNNY     59  54  84 CALM      30.00S
WAUPACA        SUNNY     65  57  75 W5        29.99R
WAUTOMA        SUNNY     63  58  83 W6        30.01R
WISC RAPIDS    SUNNY     61  55  81 W5        30.01R
CAMP DOUGLAS   SUNNY     61  61 100 CALM      30.00R
$$

WIZ011>013-019>022-031-037>040-048>050-111400-
NORTHEAST WISCONSIN

CITY           SKY/WX    TMP DP  RH WIND       PRES   REMARKS
ANTIGO         SUNNY     59  54  83 CALM      29.99R
SHAWANO        SUNNY     63  57  82 W6        29.97R
OCONTO         NOT AVBL
STURGEON BAY   SUNNY     65  60  84 W7        29.96R
GREEN BAY      SUNNY     64  57  78 W3        29.97R
MANITOWOC      SUNNY     66  58  75 W7        29.97R
APPLETON       SUNNY     61  52  72 W10       29.96R
CLINTONVILLE   SUNNY     62  54  76 W3        29.98R
OSHKOSH        SUNNY     64  56  75 W8        29.98R
$$

WIZ032>034-041-042-053>061-111400-
SOUTHWEST WISCONSIN

CITY           SKY/WX    TMP DP  RH WIND       PRES   REMARKS
LA CROSSE      SUNNY     63  58  83 S6        30.01R
SPARTA         SUNNY     51  50  97 CALM      30.02S
VIROQUA        SUNNY     60  60 100 CALM      30.02S
BOSCOBEL       FOG       60  59  96 VRB3      30.02R VSB 1/4
PRAIRIE DU CHI SUNNY     61  58  90 CALM      30.02R
PLATTEVILLE    SUNNY     61  61 100 CALM      30.03R
$$

WIZ056-057-062-063-064-067-068-111400-
SOUTH CENTRAL WISCONSIN

CITY           SKY/WX    TMP DP  RH WIND       PRES   REMARKS
REEDSBURG      SUNNY     59  59 100 CALM      30.01R
BARABOO/DELLS  SUNNY     59  56  91 W3        30.02R
LONE ROCK      NOT AVBL
MINERAL POINT  SUNNY     63  61  94 CALM      30.03R
MADISON        SUNNY     64  59  83 NW3       30.00R
MIDDLETON      SUNNY     65  59  80 W3        30.02R
WATERTOWN      SUNNY     63  63  99 CALM      30.00R
MONROE         SUNNY     65  56  72 NW7       30.01R
JANESVILLE     NOT AVBL
$$

WIZ051-052-058>065-066-070>072-111400-
SOUTHEAST WISCONSIN

CITY           SKY/WX    TMP DP  RH WIND       PRES   REMARKS
MILWAUKEE      MOSUNNY   70  59  68 NW7       29.98R
WAUKESHA       SUNNY     64  57  77 W5        30.00R
MILWAUKEE/TIMM SUNNY     66  55  68 CALM      30.00R
RACINE         SUNNY     67  60  78 NW5       30.00R
KENOSHA        SUNNY     69  60  73 NW6       29.99R
FOND DU LAC    SUNNY     64  58  80 CALM      29.99R
SHEBOYGAN      SUNNY     68  61  78 NW7       29.97R
WEST BEND      SUNNY     64  57  77 CALM      29.99R
JUNEAU         SUNNY     60  58  94 CALM      30.00S
$$

LSZ147-162-111400-
LAKE SUPERIOR

STATION/POSITION TIME  TEMP    WIND        PRES    WAVE
                       AIR SEA DIR/SP/G            HT/PER
                 (UTC) (F)     (DEG/KT/KT) (MB)    (FT/S)
W MID LAKE BUOY  1240   65 62  240/ 14/ 17 1010.8R
DEVILS ISLAND    1200   65     220/ 14/ 17 1011.3R
PORT WING        1240   64     200/  5/  8 1012.5R
SAXON HARBOR     1230   65     190/  9/ 12 1012.2R
$$

LMZ867-665-643>646-111400-
LAKE MICHIGAN

STATION/POSITION TIME  TEMP    WIND        PRES    WAVE
                       AIR SEA DIR/SP/G            HT/PER
                 (UTC) (F)     (DEG/KT/KT) (MB)    (FT/S)
CHAMBERS ISLAND  1240   66     210/  4/  9   N/A
S GREEN BAY BUOY 1200   66     280/ 14/ 17 1012.8R
N MID LAKE BUOY  1240   67 68  290/ 12/ 14 1012.8R
KEWAUNEE LAKESHO 1224   63     290/  6/  9 1013.7
SHEBOYGAN LAKESH 1200   66     270/ 10/ 12   N/A
PORT WASHINGTON  1240   68     290/  6/ 10 1015.9R
ATWATER BUOY     1230   68 70  260/  6/  8 1015.2R   1/ 3
MILWAUKEE LAKESH 1230   66     280/  4/  5   N/A
S MID LAKE BUOY  1240   71 72  340/ 12/ 12 1014.2R
KENOSHA   LAKESH 1200   66     310/  6/ 10 1014.6
$$

TC  - TEMPERATURE IN CELSIUS
VSB - VISIBILITY IN STATUTE MILES
WCI - WIND CHILL INDEX
HX  - HEAT INDEX




ASUS43 KMKX 111311
RWRWI

WISCONSIN REGIONAL WEATHER ROUNDUP
NATIONAL WEATHER SERVICE MILWAUKEE/SULLIVAN WI
800 AM CDT TUE AUG 11 2020

NOTE: "FAIR" INDICATES FEW OR NO CLOUDS BELOW 12,000 FEET WITH NO
SIGNIFICANT WEATHER AND/OR OBSTRUCTIONS TO VISIBILITY.

WIZ001-002-006>008-014>016-023>028-111400-
NORTHWEST WISCONSIN

CITY           SKY/WX    TMP DP  RH WIND       PRES   REMARKS
SUPERIOR ARPT  SUNNY     60  52  76 SW8       29.91R
ASHLAND        SUNNY     63  52  67 SW10      29.91S
HAYWARD        SUNNY     59  53  80 S6        29.97R
SIREN          SUNNY     63  55  74 SW6       29.96S
CUMBERLAND     SUNNY     59  54  82 SW3       29.98S
RICE LAKE      SUNNY     58  55  88 CALM      29.99S
CHETEK         SUNNY     59  55  88 CALM      29.99R
LADYSMITH      SUNNY     57  57 100 CALM      30.00R
EAU CLAIRE     SUNNY     62  56  80 CALM      29.98R
MENOMONIE      SUNNY     55  53  93 CALM      29.99R
NEW RICHMOND   SUNNY     61  54  78 CALM      29.99R
OSCEOLA        SUNNY     61  58  90 CALM      30.01R
$$

WIZ003>005-009-010-017-018-111400-
NORTH CENTRAL WISCONSIN

CITY           SKY/WX    TMP DP  RH WIND       PRES   REMARKS
MANITOWISH WTR SUNNY     57  56  97 W3        29.96R
ARBOR VITAE    SUNNY     62  55  79 CALM      29.97R
WOODRUFF       SUNNY     62  55  79 CALM      29.97R
RHINELANDER    SUNNY     60  52  74 W8        29.99R
EAGLE RIVER    SUNNY     59  55  89 NW5       29.97R
LAND O LAKES   SUNNY     59  53  82 W6        29.97R
PHILLIPS       SUNNY     60  53  79 CALM      29.98R
TOMAHAWK       SUNNY     55  55  98 CALM      29.99R
MEDFORD        SUNNY     57  53  85 W5        30.00R
MERRILL        SUNNY     58  54  86 W5        29.99R
$$

WIZ029-030-035-036-043>047-111400-
CENTRAL WISCONSIN

CITY           SKY/WX    TMP DP  RH WIND       PRES   REMARKS
WAUSAU         SUNNY     60  54  80 NW6       29.97R
MOSINEE        SUNNY     59  54  82 CALM      30.00R
MARSHFIELD       N/A     59  54  83 W6        29.99R
STEVENS POINT  SUNNY     59  54  84 CALM      30.00S
WAUPACA        SUNNY     65  57  75 W5        29.99R
WAUTOMA        SUNNY     63  58  83 W6        30.01R
WISC RAPIDS    SUNNY     61  55  81 W5        30.01R
CAMP DOUGLAS   SUNNY     61  61 100 CALM      30.00R
$$

WIZ011>013-019>022-031-037>040-048>050-111400-
NORTHEAST WISCONSIN

CITY           SKY/WX    TMP DP  RH WIND       PRES   REMARKS
ANTIGO         SUNNY     59  54  83 CALM      29.99R
SHAWANO        SUNNY     63  57  82 W6        29.97R
OCONTO         NOT AVBL
STURGEON BAY   SUNNY     65  60  84 W7        29.96R
GREEN BAY      SUNNY     64  57  78 W3        29.97R
MANITOWOC      SUNNY     66  58  75 W7        29.97R
APPLETON       SUNNY     61  52  72 W10       29.96R
CLINTONVILLE   SUNNY     62  54  76 W3        29.98R
OSHKOSH        SUNNY     64  56  75 W8        29.98R
$$

WIZ032>034-041-042-053>061-111400-
SOUTHWEST WISCONSIN

CITY           SKY/WX    TMP DP  RH WIND       PRES   REMARKS
LA CROSSE      SUNNY     63  58  83 S6        30.01R
SPARTA         SUNNY     51  50  97 CALM      30.02S
VIROQUA        SUNNY     60  60 100 CALM      30.02S
BOSCOBEL       FOG       60  59  96 VRB3      30.02R VSB 1/4
PRAIRIE DU CHI SUNNY     61  58  90 CALM      30.02R
PLATTEVILLE    SUNNY     61  61 100 CALM      30.03R
$$

WIZ056-057-062-063-064-067-068-111400-
SOUTH CENTRAL WISCONSIN

CITY           SKY/WX    TMP DP  RH WIND       PRES   REMARKS
REEDSBURG      SUNNY     59  59 100 CALM      30.01R
BARABOO/DELLS  SUNNY     59  56  91 W3        30.02R
LONE ROCK      FOG       59  59 100 CALM      30.02R VSB 3/4
MINERAL POINT  SUNNY     63  61  94 CALM      30.03R
MADISON        SUNNY     64  59  83 NW3       30.00R
MIDDLETON      SUNNY     65  59  80 W3        30.02R
WATERTOWN      SUNNY     63  63  99 CALM      30.00R
MONROE         SUNNY     65  56  72 NW7       30.01R
JANESVILLE     SUNNY     64  64 100 CALM      30.01R
$$

WIZ051-052-058>065-066-070>072-111400-
SOUTHEAST WISCONSIN

CITY           SKY/WX    TMP DP  RH WIND       PRES   REMARKS
MILWAUKEE      MOSUNNY   70  59  68 NW7       29.98R
WAUKESHA       SUNNY     64  57  77 W5        30.00R
MILWAUKEE/TIMM SUNNY     66  55  68 CALM      30.00R
RACINE         SUNNY     67  60  78 NW5       30.00R
KENOSHA        SUNNY     69  60  73 NW6       29.99R
FOND DU LAC    SUNNY     64  58  80 CALM      29.99R
SHEBOYGAN      SUNNY     68  61  78 NW7       29.97R
WEST BEND      SUNNY     64  57  77 CALM      29.99R
JUNEAU         SUNNY     60  58  94 CALM      30.00S
$$

LSZ147-162-111400-
LAKE SUPERIOR

STATION/POSITION TIME  TEMP    WIND        PRES    WAVE
                       AIR SEA DIR/SP/G            HT/PER
                 (UTC) (F)     (DEG/KT/KT) (MB)    (FT/S)
W MID LAKE BUOY  1250   65 62  240/ 16/ 17 1010.8R   2/ 4
DEVILS ISLAND    1200   65     220/ 14/ 17 1011.3R
PORT WING        1240   64     200/  5/  8 1012.5R
SAXON HARBOR     1230   65     190/  9/ 12 1012.2R
$$

LMZ867-665-643>646-111400-
LAKE MICHIGAN

STATION/POSITION TIME  TEMP    WIND        PRES    WAVE
                       AIR SEA DIR/SP/G            HT/PER
                 (UTC) (F)     (DEG/KT/KT) (MB)    (FT/S)
CHAMBERS ISLAND  1240   66     210/  4/  9   N/A
S GREEN BAY BUOY 1200   66     280/ 14/ 17 1012.8R
N MID LAKE BUOY  1250   67 68  290/ 12/ 14 1012.8R   1/ 3
KEWAUNEE LAKESHO 1224   63     290/  6/  9 1013.7
SHEBOYGAN LAKESH 1300   67     290/ 12/ 14   N/A
PORT WASHINGTON  1240   68     290/  6/ 10 1015.9R
ATWATER BUOY     1230   68 70  260/  6/  8 1015.2R   1/ 3
MILWAUKEE LAKESH 1250   68     270/  4/  5   N/A
S MID LAKE BUOY  1250   71 72  340/ 10/ 12 1014.3R   2/ 4
KENOSHA   LAKESH 1200   66     310/  6/ 10 1014.6
$$

TC  - TEMPERATURE IN CELSIUS
VSB - VISIBILITY IN STATUTE MILES
WCI - WIND CHILL INDEX
HX  - HEAT INDEX




ASUS43 KMKX 111321
RWRWI

WISCONSIN REGIONAL WEATHER ROUNDUP
NATIONAL WEATHER SERVICE MILWAUKEE/SULLIVAN WI
800 AM CDT TUE AUG 11 2020

NOTE: "FAIR" INDICATES FEW OR NO CLOUDS BELOW 12,000 FEET WITH NO
SIGNIFICANT WEATHER AND/OR OBSTRUCTIONS TO VISIBILITY.

WIZ001-002-006>008-014>016-023>028-111400-
NORTHWEST WISCONSIN

CITY           SKY/WX    TMP DP  RH WIND       PRES   REMARKS
SUPERIOR ARPT  SUNNY     61  53  74 SW9       29.90F
ASHLAND        SUNNY     63  52  67 SW10      29.91S
HAYWARD        SUNNY     59  53  80 S6        29.97R
SIREN          SUNNY     64  55  72 W7        29.96S
CUMBERLAND     SUNNY     61  55  82 W5        29.98S
RICE LAKE      SUNNY     60  56  88 CALM      29.99S
CHETEK         SUNNY     61  56  84 CALM      29.99S
LADYSMITH      SUNNY     60  59  98 CALM      30.00S
EAU CLAIRE     SUNNY     62  56  80 CALM      29.98R
MENOMONIE      SUNNY     58  54  86 CALM      29.99S
NEW RICHMOND   SUNNY     64  55  75 CALM      29.99S
OSCEOLA        SUNNY     63  60  88 CALM      30.01R
$$

WIZ003>005-009-010-017-018-111400-
NORTH CENTRAL WISCONSIN

CITY           SKY/WX    TMP DP  RH WIND       PRES   REMARKS
MANITOWISH WTR SUNNY     61  55  79 W5        29.97R
ARBOR VITAE    SUNNY     62  55  79 CALM      29.97R
WOODRUFF       SUNNY     62  55  79 CALM      29.97R
RHINELANDER    SUNNY     60  52  74 W8        29.99R
EAGLE RIVER    SUNNY     60  54  78 W5        29.97R
LAND O LAKES   SUNNY     61  53  74 W3        29.98R
PHILLIPS       SUNNY     60  53  79 CALM      29.98R
TOMAHAWK       SUNNY     58  54  88 W3        30.00R
MEDFORD        SUNNY     57  53  85 W5        30.00R
MERRILL        SUNNY     60  54  82 W5        30.00R
$$

WIZ029-030-035-036-043>047-111400-
CENTRAL WISCONSIN

CITY           SKY/WX    TMP DP  RH WIND       PRES   REMARKS
WAUSAU         SUNNY     60  54  80 NW6       29.97R
MOSINEE        SUNNY     59  54  82 CALM      30.00R
MARSHFIELD       N/A     59  54  83 W6        29.99R
STEVENS POINT  SUNNY     59  54  84 CALM      30.00S
WAUPACA        SUNNY     66  56  71 W5        30.00R
WAUTOMA        SUNNY     63  58  83 W6        30.01R
WISC RAPIDS    SUNNY     61  55  81 W5        30.01R
CAMP DOUGLAS   SUNNY     61  61 100 CALM      30.00R
$$

WIZ011>013-019>022-031-037>040-048>050-111400-
NORTHEAST WISCONSIN

CITY           SKY/WX    TMP DP  RH WIND       PRES   REMARKS
ANTIGO         SUNNY     60  54  79 CALM      30.00R
SHAWANO        SUNNY     64  57  77 W6        29.97R
OCONTO         NOT AVBL
STURGEON BAY   SUNNY     65  60  84 W7        29.96R
GREEN BAY      SUNNY     64  57  78 W3        29.97R
MANITOWOC      SUNNY     66  58  75 W7        29.97R
APPLETON       SUNNY     61  52  72 W10       29.96R
CLINTONVILLE   SUNNY     63  55  73 SW3       29.99R
OSHKOSH        SUNNY     64  56  75 W8        29.98R
$$

WIZ032>034-041-042-053>061-111400-
SOUTHWEST WISCONSIN

CITY           SKY/WX    TMP DP  RH WIND       PRES   REMARKS
LA CROSSE      SUNNY     63  58  83 S6        30.01R
SPARTA         SUNNY     54  52  94 CALM      30.02S
VIROQUA        SUNNY     61  61  97 CALM      30.03R
BOSCOBEL       FOG       60  59  96 VRB3      30.02R VSB 1/4
PRAIRIE DU CHI SUNNY     62  57  81 CALM      30.02R
PLATTEVILLE    SUNNY     61  61 100 CALM      30.03R
$$

WIZ056-057-062-063-064-067-068-111400-
SOUTH CENTRAL WISCONSIN

CITY           SKY/WX    TMP DP  RH WIND       PRES   REMARKS
REEDSBURG      SUNNY     61  60  97 CALM      30.02R
BARABOO/DELLS  SUNNY     61  56  85 W3        30.02R
LONE ROCK      CLOUDY    59  59 100 CALM      30.02R FOG
MINERAL POINT  SUNNY     64  61  88 NW3       30.03R
MADISON        SUNNY     64  59  83 NW3       30.00R
MIDDLETON      SUNNY     65  59  80 W3        30.02R
WATERTOWN      SUNNY     63  63  99 CALM      30.00R
MONROE         SUNNY     66  56  69 NW6       30.02R
JANESVILLE     SUNNY     64  64 100 CALM      30.01R
$$

WIZ051-052-058>065-066-070>072-111400-
SOUTHEAST WISCONSIN

CITY           SKY/WX    TMP DP  RH WIND       PRES   REMARKS
MILWAUKEE      MOSUNNY   70  59  68 NW7       29.98R
WAUKESHA       SUNNY     64  57  77 W5        30.00R
MILWAUKEE/TIMM SUNNY     66  55  68 CALM      30.00R
RACINE         SUNNY     67  60  78 NW5       30.00R
KENOSHA        SUNNY     69  60  73 NW6       29.99R
FOND DU LAC    SUNNY     64  58  80 CALM      29.99R
SHEBOYGAN      SUNNY     68  61  78 NW7       29.97R
WEST BEND      SUNNY     64  57  77 W6        30.00R
JUNEAU         SUNNY     62  59  90 CALM      30.01R
$$

LSZ147-162-111400-
LAKE SUPERIOR

STATION/POSITION TIME  TEMP    WIND        PRES    WAVE
                       AIR SEA DIR/SP/G            HT/PER
                 (UTC) (F)     (DEG/KT/KT) (MB)    (FT/S)
W MID LAKE BUOY  1310   65 62  230/ 14/ 16 1010.9
DEVILS ISLAND    1300   65     240/ 18/ 21 1011.6R
PORT WING        1240   64     200/  5/  8 1012.5R
SAXON HARBOR     1230   65     190/  9/ 12 1012.2R
$$

LMZ867-665-643>646-111400-
LAKE MICHIGAN

STATION/POSITION TIME  TEMP    WIND        PRES    WAVE
                       AIR SEA DIR/SP/G            HT/PER
                 (UTC) (F)     (DEG/KT/KT) (MB)    (FT/S)
CHAMBERS ISLAND  1240   66     210/  4/  9   N/A
S GREEN BAY BUOY 1300   67     280/ 12/ 16 1013.2R
N MID LAKE BUOY  1310   67 68  300/ 10/ 14 1013.1
KEWAUNEE LAKESHO 1248   65     290/  7/ 10 1013.7R
SHEBOYGAN LAKESH 1300   67     290/ 12/ 14   N/A
PORT WASHINGTON  1240   68     290/  6/ 10 1015.9R
ATWATER BUOY     1300   69 70  260/  4/  6 1015.6    1
MILWAUKEE LAKESH 1300   68     290/  4/  5   N/A
S MID LAKE BUOY  1300   71 72  350/ 10/ 12 1014.4
KENOSHA   LAKESH 1200   66     310/  6/ 10 1014.6
$$

TC  - TEMPERATURE IN CELSIUS
VSB - VISIBILITY IN STATUTE MILES
WCI - WIND CHILL INDEX
HX  - HEAT INDEX